User: anonymous
Location: Starry Hill Observatory
(46.8582°N, 122.3590°W)
Time: 02:13:43
(UTC-07:00)
Language:

Cosmos 1300 Rocket - Orbit

View from above orbital plane
View from above orbital plane
View from above satellite
View from above satellite

Ground track
Ground track

The orbit data is extracted from the following two-line orbital elements,

1 12786U 81082B   14244.06409785  .00000362  00000-0  40422-4 0  9646
2 12786 082.4894 208.9141 0018008 026.9801 026.9137 14.84156160783472
Epoch (UTC): 01 September 2014 01:32:18
Eccentricity: 0.0018008
inclination: 82.4894°
perigee height: 603 km
apogee height: 629 km
right ascension of ascending node: 208.9141°
argument of perigee: 26.9801°
revolutions per day: 14.84156160
mean anomaly at epoch: 26.9137°
orbit number at epoch: 78347

The dashed part of the orbit path shows where the satellite is in the earth's shadow,  

DLR